RH
16 13 13 13 11 10 10 11 10 14 23 23 24 24 27 32 33 36 33 33 33 37 45 47 51 47 46 50 54 51 54 53 45 41 40 36 36 36 33 30 37 37 35 34
16 17 17 18 14 13 12 12 16 21 24 22 24 30 31 31 36 34 34 35 38 45 48 55 56 54 53 52 49 49 48 46 39 35 35 37 37 34 31 33 37 34 35 31
13 20 20 16 16 16 18 16 22 16 24 22 23 29 32 39 38 40 37 36 39 44 50 55 57 56 55 54 54 48 42 36 37 39 34 34 36 34 31 30 28 34 37 33
20 20 18 18 19 21 19 21 20 24 22 20 23 21 34 37 43 41 43 42 44 48 49 51 53 56 54 55 49 39 35 36 36 33 36 41 33 32 35 33 32 34 39 40
25 20 20 19 23 24 25 24 22 22 20 23 24 20 32 37 42 44 44 45 46 46 45 45 44 43 38 41 40 39 35 34 35 36 37 34 37 34 33 34 38 36 35 36
22 20 20 22 25 23 26 25 24 24 23 32 21 23 20 34 32 40 41 41 41 40 36 32 32 30 31 36 40 40 36 35 36 37 40 44 43 35 29 26 24 20 20 20
22 23 20 21 25 26 24 24 29 29 36 35 31 28 19 21 28 34 40 36 38 36 30 29 29 28 33 40 42 38 35 36 37 38 35 31 27 25 23 23 21 25 22 23
20 31 21 22 22 21 25 23 28 35 41 22 32 26 16 24 24 29 31 31 33 32 32 31 29 31 35 41 38 37 35 35 31 27 23 23 23 22 21 27 28 27 28 31
24 26 22 24 22 21 27 29 27 40 46 42 22 24 23 26 26 29 29 30 31 31 33 33 34 36 38 38 42 40 30 24 23 25 26 29 29 32 33 34 33 30 34 33
27 30 25 24 23 25 24 24 33 36 49 41 24 30 22 32 30 30 30 32 30 30 33 37 37 39 37 39 37 33 25 23 26 27 29 29 31 32 34 34 35 36 38 39
22 26 32 28 26 23 28 26 28 28 40 32 28 16 26 27 28 32 31 31 30 33 36 39 39 40 38 37 32 28 25 26 27 25 30 34 33 33 34 34 35 37 41 40
28 32 44 28 26 26 24 23 21 30 31 45 53 21 26 32 30 27 29 30 30 34 36 38 40 43 42 34 28 27 27 25 24 27 30 31 33 33 34 35 36 41 42 42
32 36 43 34 29 26 27 25 23 32 44 41 67 20 25 31 33 30 30 28 34 37 38 38 39 40 35 30 28 28 28 24 22 21 23 27 31 34 36 37 39 41 44 46
45 36 36 39 26 26 34 30 25 22 37 28 34 15 18 22 27 28 32 30 35 40 40 37 36 33 28 26 28 28 31 26 23 20 22 28 34 36 39 39 40 42 45 48
36 41 36 34 35 31 26 26 28 25 25 33 17 20 14 17 19 23 31 35 36 40 39 37 33 29 26 26 29 29 28 27 26 24 24 30 35 38 38 41 40 43 49 47
43 50 47 49 40 35 35 25 25 26 24 26 20 23 16 20 26 30 36 38 38 39 37 36 33 28 26 26 28 27 25 26 26 27 29 30 34 38 41 40 45 44 44 44
51 62 48 42 47 45 72 40 25 24 24 27 30 22 25 30 32 31 34 38 38 37 36 36 35 30 26 25 29 26 23 25 27 27 29 31 35 40 39 37 37 38 42 45
63 53 59 68 69 83 21 28 26 24 22 21 22 25 24 25 30 33 31 34 37 35 36 35 34 31 26 23 26 23 20 22 25 27 28 31 35 36 34 35 38 41 42 43
41 53 75 92 45 31 15 23 28 33 20 22 22 21 28 40 41 36 34 34 36 36 36 35 33 30 27 23 23 22 21 21 24 30 30 25 29 32 32 34 40 42 42 41
46 54 54 71 89 88 30 27 38 34 30 28 33 34 41 43 58 22 34 36 38 36 36 36 32 28 25 23 22 22 20 26 31 29 27 29 30 31 34 37 42 44 44 42
78 83 86 70 91 46 26 32 36 41 34 33 38 36 43 45 34 36 40 38 38 36 37 35 29 24 23 21 21 25 30 32 26 31 34 30 31 34 37 41 43 44 44 43
58 73 91 76 95 79 29 40 50 37 41 38 38 38 46 40 42 44 41 42 41 39 34 29 25 27 26 25 30 29 28 24 32 35 36 36 39 42 42 46 45 45 45 47
55 51 54 46 44 34 33 36 34 39 42 39 41 34 40 42 41 43 42 37 37 31 23 24 31 35 35 32 28 23 25 36 40 42 42 44 47 47 46 48 49 45 44 50
49 45 57 55 32 32 32 31 31 33 38 34 33 36 40 45 42 45 43 35 31 25 25 29 37 34 40 37 35 36 38 43 45 49 49 49 50 58 52 46 44 46 50 54
50 49 49 48 38 34 32 34 35 33 36 40 38 43 48 49 48 47 39 33 28 40 50 53 56 52 37 35 39 40 46 48 49 53 53 52 55 58 60 61 50 50 48 51
46 44 60 59 29 39 35 32 38 42 41 43 49 50 53 54 52 44 36 36 60 59 60 56 43 45 48 47 47 50 50 54 63 64 58 55 60 59 60 62 63 76 71 73
Wind_Speed
5 6 9 12 5 4 7 8 13 9 6 6 6 8 5 6 8 9 10 12 12 11 10 9 9 11 14 15 15 15 11 7 4 4 5 5 3 4 4 5 6 5 5 5
6 5 4 5 5 6 6 10 9 6 4 3 8 8 6 4 5 6 10 10 11 11 12 11 13 14 14 16 14 11 10 8 6 5 4 3 1 4 5 4 4 4 4 4
7 8 4 7 8 9 6 6 10 7 7 4 10 8 7 5 7 7 6 7 9 12 13 13 14 14 14 14 12 10 10 9 6 4 4 5 5 4 2 2 3 5 6 8
6 4 5 8 6 3 7 3 9 13 12 8 7 5 8 9 8 9 10 10 11 13 14 14 14 13 13 11 10 12 11 8 6 3 7 7 6 5 4 3 4 6 6 8
4 7 7 6 4 1 4 11 10 8 7 6 10 9 12 9 12 13 13 13 13 14 14 14 14 14 14 12 11 10 11 10 9 9 8 6 6 4 4 5 7 8 8 10
6 2 2 4 5 2 13 11 7 3 3 7 2 8 8 12 16 16 16 14 14 14 14 14 14 13 12 10 10 10 11 11 10 11 11 9 8 7 6 8 8 8 9 10
7 4 5 5 11 8 7 11 5 7 6 8 2 7 12 7 8 18 20 17 17 16 16 15 15 14 12 11 11 11 12 12 10 10 10 9 8 7 7 8 7 10 9 9
10 7 6 3 3 6 9 7 4 5 6 6 3 7 2 0 9 15 19 18 18 17 15 16 16 13 13 13 12 12 12 11 10 10 10 8 7 5 5 7 7 7 8 9
6 4 4 3 2 3 6 7 4 3 0 5 6 6 9 7 10 15 20 19 19 18 17 16 12 12 13 13 13 12 12 11 10 8 7 6 5 5 5 7 8 8 9 9
4 5 2 5 3 7 4 8 4 3 4 6 4 7 7 9 14 18 20 20 19 18 17 14 13 13 13 14 12 12 11 11 10 8 6 4 4 4 6 7 9 10 10 10
5 2 6 3 6 6 6 5 1 1 3 4 3 1 4 1 11 19 21 20 19 18 16 15 13 13 14 13 12 11 10 10 10 8 6 4 3 5 6 7 8 9 10 9
2 2 4 6 4 2 3 3 7 4 5 1 3 4 3 1 4 12 18 18 17 17 16 15 15 15 14 14 13 11 11 10 8 7 6 4 3 4 5 7 8 9 10 9
6 4 5 6 6 5 7 6 3 5 1 6 3 2 3 3 6 10 13 14 14 15 16 16 16 15 15 14 13 12 11 8 8 6 5 2 1 3 6 7 8 9 9 9
3 3 5 7 1 1 7 11 11 8 4 4 9 9 7 7 8 9 12 14 17 17 17 16 16 16 15 14 13 11 9 9 7 6 4 3 4 5 6 7 8 9 9 8
4 5 4 1 1 3 4 8 13 15 12 8 7 11 7 6 8 8 9 12 15 17 18 18 18 16 16 15 12 10 10 8 6 5 6 5 5 6 6 7 8 9 9 8
1 3 2 4 2 2 6 10 11 15 14 15 16 19 12 6 5 8 11 14 16 16 18 18 18 17 16 15 12 10 9 8 6 6 6 6 6 7 7 8 9 10 9 9
4 6 4 3 1 2 6 15 17 11 11 12 12 11 4 6 9 10 12 14 16 16 18 19 18 16 14 14 11 11 9 8 7 6 6 7 7 8 9 8 10 10 9 9
5 4 1 1 2 4 2 2 2 12 15 13 16 8 7 5 3 5 9 13 15 17 18 17 14 13 13 13 11 9 8 7 6 6 7 7 8 9 10 9 10 9 8 8
1 4 3 3 5 6 9 4 4 5 5 3 12 10 3 2 4 10 11 14 15 15 14 13 12 12 13 12 11 10 9 7 6 6 6 8 8 10 10 11 10 10 8 8
5 3 2 3 3 4 3 3 0 2 6 6 2 2 6 5 4 6 9 13 13 13 12 12 12 11 12 11 11 11 8 6 6 6 7 7 8 10 11 11 11 10 8 7
2 1 4 4 4 6 1 2 3 3 4 3 2 3 7 8 8 5 1 8 11 12 13 12 13 12 11 11 11 9 6 6 5 5 6 8 9 11 11 11 11 10 9 6
5 6 3 3 3 5 5 5 3 4 2 4 4 5 9 12 5 6 4 3 8 11 10 11 10 9 8 8 6 6 5 3 5 6 7 9 9 8 8 11 11 8 7 5
4 3 1 6 1 3 8 6 3 4 7 8 8 9 8 11 12 9 7 6 7 10 10 10 10 10 7 5 4 4 3 4 5 7 9 9 8 8 9 9 7 6 6 5
5 4 3 2 3 9 9 10 11 10 11 11 11 11 11 12 12 9 7 7 8 10 9 10 9 9 6 3 1 3 3 5 6 8 8 7 7 7 8 5 5 6 5 5
2 7 5 5 11 8 8 8 7 7 7 9 9 9 10 9 9 6 7 9 9 10 9 6 8 3 4 2 3 4 4 5 7 6 6 7 5 5 6 8 7 5 7 5
7 6 5 5 8 5 8 5 6 9 10 10 10 9 4 4 0 5 8 9 8 10 8 7 3 1 2 4 5 5 5 5 5 6 6 5 5 5 5 6 7 10 8 4
Wind_Direction
189 202 205 185 228 49 128 136 133 118 108 108 118 114 102 123 157 166 165 167 166 159 151 151 141 148 153 154 163 173 166 161 180 155 140 150 144 107 99 84 56 53 45 51
177 135 120 121 133 134 147 155 137 111 126 213 157 112 105 125 136 175 175 174 163 154 154 150 152 155 161 164 168 168 167 168 158 147 109 20 115 88 92 94 82 65 51 26
175 112 147 136 131 136 122 185 166 181 159 191 172 149 156 112 128 138 148 154 164 160 154 155 154 157 158 161 162 164 148 134 95 65 138 130 129 138 155 63 38 48 6 347
74 103 137 124 122 290 168 162 149 153 182 191 214 199 176 164 147 156 151 154 148 147 146 142 147 147 155 146 149 135 130 114 89 109 87 65 48 48 38 10 13 335 337 326
95 134 140 125 64 166 77 143 138 163 206 211 192 258 113 176 183 172 163 152 150 149 152 151 149 147 135 135 132 127 121 111 106 96 90 89 73 61 31 1 335 321 316 312
98 79 12 88 59 167 146 139 129 167 216 240 257 266 177 185 207 177 172 171 163 160 154 148 141 141 137 131 130 134 127 117 106 97 86 81 67 42 16 1 339 337 326 321
149 96 110 166 117 139 222 183 183 225 209 249 77 254 265 203 200 182 177 171 167 163 161 159 162 164 154 147 139 135 125 117 106 95 89 80 71 46 19 359 348 333 330 326
190 174 181 140 274 205 197 239 229 240 221 261 173 242 254 274 179 183 180 170 169 171 169 173 174 165 158 150 146 135 130 124 114 103 95 80 55 44 21 5 347 331 327 324
177 115 126 53 162 248 153 219 38 145 60 267 256 235 238 178 188 190 181 174 178 180 177 177 170 171 158 153 149 143 131 121 117 111 97 96 81 52 17 359 346 343 333 328
157 144 175 136 175 69 293 123 183 211 238 244 197 273 264 188 189 189 184 186 186 184 181 174 171 162 158 151 142 143 140 139 132 127 128 134 114 55 19 2 348 339 337 332
167 225 146 201 213 195 154 186 76 348 298 284 294 263 44 273 189 193 193 193 189 187 184 175 166 161 156 150 153 150 147 153 159 138 152 156 100 45 16 351 342 337 327 325
129 134 173 194 111 327 285 201 200 242 174 95 327 290 133 170 236 202 200 197 194 191 184 174 167 165 161 163 162 163 173 171 147 150 175 162 69 21 348 341 335 331 316 314
171 190 158 166 173 188 228 189 177 112 127 204 191 267 167 200 216 215 220 192 198 191 177 175 173 170 170 171 172 175 184 151 165 169 186 169 284 315 326 331 328 320 313 306
189 182 245 234 46 265 193 194 197 209 202 206 238 268 202 217 224 200 210 196 197 190 180 179 179 177 178 178 177 183 166 169 168 189 219 240 267 293 308 315 318 319 310 301
229 229 205 159 100 216 257 223 200 213 230 230 274 252 275 253 236 224 197 194 195 190 186 187 185 183 183 183 181 184 169 167 183 214 244 262 259 264 289 300 318 321 304 289
151 183 178 206 201 251 257 240 230 230 245 256 267 271 274 254 257 202 198 195 199 197 195 191 194 191 191 184 190 177 170 184 194 224 253 265 260 269 283 299 313 307 296 291
155 146 164 230 5 268 281 239 223 223 224 243 251 269 159 210 228 225 210 206 207 203 199 199 198 197 193 190 190 183 182 184 206 238 261 264 260 263 282 291 298 309 304 296
128 119 70 106 205 226 38 107 325 244 257 240 260 255 273 291 277 272 220 210 212 209 207 204 201 198 193 193 189 186 187 196 220 242 265 269 265 271 283 284 290 305 294 297
23 146 122 183 215 318 271 187 203 207 286 294 254 273 255 241 264 242 220 220 222 215 212 206 201 195 190 184 185 191 200 220 235 253 271 282 285 280 288 287 284 293 290 288
69 61 264 151 221 246 57 73 133 228 267 34 279 270 200 193 248 289 182 211 216 214 206 198 189 175 178 182 174 200 206 218 243 274 286 289 289 291 290 287 279 285 276 275
120 35 213 177 242 281 330 128 176 239 28 24 262 214 191 213 257 4 321 217 214 206 200 187 177 176 172 168 177 188 189 228 276 276 282 291 296 297 293 286 279 277 264 263
188 169 181 133 209 268 155 143 229 13 346 295 281 265 247 252 289 282 271 244 213 193 181 175 161 143 131 144 185 177 223 277 270 284 291 294 302 299 292 287 283 259 253 248
229 237 253 222 258 109 194 276 324 307 292 294 292 303 270 262 258 249 237 193 179 173 157 136 129 120 116 132 177 240 301 269 276 285 291 299 300 298 304 295 269 244 240 239
211 180 236 242 176 240 247 259 270 274 271 288 289 282 284 270 276 249 224 176 160 141 140 117 117 109 92 107 299 284 292 277 286 288 291 298 306 335 304 285 251 251 241 241
29 167 205 249 277 273 259 247 270 289 288 284 288 287 296 295 283 240 185 158 131 116 106 91 92 116 189 222 299 295 280 289 285 283 285 290 299 300 304 296 281 252 266 241
187 196 201 257 313 298 301 350 333 301 314 331 321 312 341 310 133 138 122 121 112 90 66 68 87 248 266 277 277 278 285 273 268 271 275 292 308 311 295 283 275 222 247 197